Year,Month,Day,Hour,Minute,Value (Times are PST for temperature in C)
2010,05,08,00,00,7.30
2010,05,08,00,01,7.30
2010,05,08,00,02,7.30
2010,05,08,00,03,7.30
2010,05,08,00,04,7.30
2010,05,08,00,05,7.30
2010,05,08,00,06,7.30
2010,05,08,00,07,7.30
2010,05,08,00,08,7.30
2010,05,08,00,09,7.30
2010,05,08,00,10,7.30
2010,05,08,00,11,7.30
2010,05,08,00,12,7.30
2010,05,08,00,13,7.30
2010,05,08,00,14,7.30
2010,05,08,00,15,7.20
2010,05,08,00,16,7.20
2010,05,08,00,17,7.20
2010,05,08,00,18,7.20
2010,05,08,00,19,7.10
2010,05,08,00,20,7.10
2010,05,08,00,21,7.10
2010,05,08,00,22,7.10
2010,05,08,00,23,7.00
2010,05,08,00,24,7.00
2010,05,08,00,25,7.10
2010,05,08,00,26,7.10
2010,05,08,00,27,7.10
2010,05,08,00,28,7.00
2010,05,08,00,29,7.00
2010,05,08,00,30,7.00
2010,05,08,00,31,7.00
2010,05,08,00,32,6.90
2010,05,08,00,33,6.90
2010,05,08,00,34,6.90
2010,05,08,00,35,6.90
2010,05,08,00,36,6.90
2010,05,08,00,37,6.80
2010,05,08,00,38,6.80
2010,05,08,00,39,6.80
2010,05,08,00,40,6.80
2010,05,08,00,41,6.70
2010,05,08,00,42,6.70
2010,05,08,00,43,6.70
2010,05,08,00,44,6.60
2010,05,08,00,45,6.60
2010,05,08,00,46,6.60
2010,05,08,00,47,6.60
2010,05,08,00,48,6.50
2010,05,08,00,49,6.50
2010,05,08,00,50,6.50
2010,05,08,00,51,6.50
2010,05,08,00,52,6.50
2010,05,08,00,53,6.40
2010,05,08,00,54,6.40
2010,05,08,00,55,6.40
2010,05,08,00,56,6.40
2010,05,08,00,57,6.40
2010,05,08,00,58,6.40
2010,05,08,00,59,6.40
2010,05,08,01,00,6.40
2010,05,08,01,01,6.30
2010,05,08,01,02,6.30
2010,05,08,01,03,6.30
2010,05,08,01,04,6.30
2010,05,08,01,05,6.30
2010,05,08,01,06,6.30
2010,05,08,01,07,6.30
2010,05,08,01,08,6.30
2010,05,08,01,09,6.30
2010,05,08,01,10,6.30
2010,05,08,01,11,6.30
2010,05,08,01,12,6.30
2010,05,08,01,13,6.20
2010,05,08,01,14,6.20
2010,05,08,01,15,6.20
2010,05,08,01,16,6.20
2010,05,08,01,17,6.20
2010,05,08,01,18,6.30
2010,05,08,01,19,6.30
2010,05,08,01,20,6.30
2010,05,08,01,21,6.30
2010,05,08,01,22,6.30
2010,05,08,01,23,6.30
2010,05,08,01,24,6.30
2010,05,08,01,25,6.30
2010,05,08,01,26,6.20
2010,05,08,01,27,6.20
2010,05,08,01,28,6.20
2010,05,08,01,29,6.20
2010,05,08,01,30,6.10
2010,05,08,01,31,6.10
2010,05,08,01,32,6.10
2010,05,08,01,33,6.10
2010,05,08,01,34,6.10
2010,05,08,01,35,6.10
2010,05,08,01,36,6.10
2010,05,08,01,37,6.00
2010,05,08,01,38,6.00
2010,05,08,01,39,6.00
2010,05,08,01,40,5.90
2010,05,08,01,41,5.90
2010,05,08,01,42,5.90
2010,05,08,01,43,5.90
2010,05,08,01,44,5.80
2010,05,08,01,45,5.80
2010,05,08,01,46,5.80
2010,05,08,01,47,5.80
2010,05,08,01,48,5.80
2010,05,08,01,49,5.80
2010,05,08,01,50,5.80
2010,05,08,01,51,5.80
2010,05,08,01,52,5.80
2010,05,08,01,53,5.80
2010,05,08,01,54,5.80
2010,05,08,01,55,5.80
2010,05,08,01,56,5.70
2010,05,08,01,57,5.70
2010,05,08,01,58,5.70
2010,05,08,01,59,5.70
2010,05,08,02,00,5.70
2010,05,08,02,01,5.70
2010,05,08,02,02,5.70
2010,05,08,02,03,5.70
2010,05,08,02,04,5.60
2010,05,08,02,05,5.60
2010,05,08,02,06,5.60
2010,05,08,02,07,5.60
2010,05,08,02,08,5.60
2010,05,08,02,09,5.60
2010,05,08,02,10,5.60
2010,05,08,02,11,5.60
2010,05,08,02,12,5.60
2010,05,08,02,13,5.60
2010,05,08,02,14,5.60
2010,05,08,02,15,5.60
2010,05,08,02,16,5.60
2010,05,08,02,17,5.50
2010,05,08,02,18,5.50
2010,05,08,02,19,5.50
2010,05,08,02,20,5.50
2010,05,08,02,21,5.40
2010,05,08,02,22,5.40
2010,05,08,02,23,5.40
2010,05,08,02,24,5.40
2010,05,08,02,25,5.40
2010,05,08,02,26,5.30
2010,05,08,02,27,5.30
2010,05,08,02,28,5.30
2010,05,08,02,29,5.30
2010,05,08,02,30,5.30
2010,05,08,02,31,5.30
2010,05,08,02,32,5.30
2010,05,08,02,33,5.30
2010,05,08,02,34,5.30
2010,05,08,02,35,5.30
2010,05,08,02,36,5.30
2010,05,08,02,37,5.30
2010,05,08,02,38,5.30
2010,05,08,02,39,5.30
2010,05,08,02,40,5.30
2010,05,08,02,41,5.40
2010,05,08,02,42,5.40
2010,05,08,02,43,5.40
2010,05,08,02,44,5.40
2010,05,08,02,45,5.40
2010,05,08,02,46,5.50
2010,05,08,02,47,5.50
2010,05,08,02,48,5.50
2010,05,08,02,49,5.50
2010,05,08,02,50,5.50
2010,05,08,02,51,5.50
2010,05,08,02,52,5.60
2010,05,08,02,53,5.60
2010,05,08,02,54,5.50
2010,05,08,02,55,5.50
2010,05,08,02,56,5.50
2010,05,08,02,57,5.50
2010,05,08,02,58,5.50
2010,05,08,02,59,5.50
2010,05,08,03,00,5.50
2010,05,08,03,01,5.50
2010,05,08,03,02,5.50
2010,05,08,03,03,5.50
2010,05,08,03,04,5.50
2010,05,08,03,05,5.50
2010,05,08,03,06,5.50
2010,05,08,03,07,5.50
2010,05,08,03,08,5.50
2010,05,08,03,09,5.40
2010,05,08,03,10,5.40
2010,05,08,03,11,5.40
2010,05,08,03,12,5.40
2010,05,08,03,13,5.30
2010,05,08,03,14,5.30
2010,05,08,03,15,5.30
2010,05,08,03,16,5.30
2010,05,08,03,17,5.30
2010,05,08,03,18,5.30
2010,05,08,03,19,5.20
2010,05,08,03,20,5.20
2010,05,08,03,21,5.20
2010,05,08,03,22,5.20
2010,05,08,03,23,5.20
2010,05,08,03,24,5.20
2010,05,08,03,25,5.10
2010,05,08,03,26,5.10
2010,05,08,03,27,5.10
2010,05,08,03,28,5.10
2010,05,08,03,29,5.10
2010,05,08,03,30,5.10
2010,05,08,03,31,5.10
2010,05,08,03,32,5.10
2010,05,08,03,33,5.10
2010,05,08,03,34,5.00
2010,05,08,03,35,5.00
2010,05,08,03,36,5.00
2010,05,08,03,37,5.00
2010,05,08,03,38,5.00
2010,05,08,03,39,4.90
2010,05,08,03,40,4.90
2010,05,08,03,41,4.90
2010,05,08,03,42,4.90
2010,05,08,03,43,4.90
2010,05,08,03,44,4.90
2010,05,08,03,45,4.90
2010,05,08,03,46,4.90
2010,05,08,03,47,4.90
2010,05,08,03,48,4.80
2010,05,08,03,49,4.80
2010,05,08,03,50,4.80
2010,05,08,03,51,4.80
2010,05,08,03,52,4.90
2010,05,08,03,53,4.90
2010,05,08,03,54,4.90
2010,05,08,03,55,4.90
2010,05,08,03,56,5.00
2010,05,08,03,57,5.00
2010,05,08,03,58,5.00
2010,05,08,03,59,4.90
2010,05,08,04,00,4.90
2010,05,08,04,01,4.90
2010,05,08,04,02,4.90
2010,05,08,04,03,4.90
2010,05,08,04,04,4.90
2010,05,08,04,05,4.90
2010,05,08,04,06,4.90
2010,05,08,04,07,4.90
2010,05,08,04,08,4.90
2010,05,08,04,09,4.90
2010,05,08,04,10,4.90
2010,05,08,04,11,4.90
2010,05,08,04,12,4.90
2010,05,08,04,13,4.80
2010,05,08,04,14,4.80
2010,05,08,04,15,4.80
2010,05,08,04,16,4.80
2010,05,08,04,17,4.70
2010,05,08,04,18,4.70
2010,05,08,04,19,4.70
2010,05,08,04,20,4.70
2010,05,08,04,21,4.70
2010,05,08,04,22,4.70
2010,05,08,04,23,4.70
2010,05,08,04,24,4.70
2010,05,08,04,25,4.70
2010,05,08,04,26,4.70
2010,05,08,04,27,4.70
2010,05,08,04,28,4.60
2010,05,08,04,29,4.60
2010,05,08,04,30,4.60
2010,05,08,04,31,4.60
2010,05,08,04,32,4.60
2010,05,08,04,33,4.60
2010,05,08,04,34,4.60
2010,05,08,04,35,4.50
2010,05,08,04,36,4.50
2010,05,08,04,37,4.50
2010,05,08,04,38,4.50
2010,05,08,04,39,4.50
2010,05,08,04,40,4.40
2010,05,08,04,41,4.40
2010,05,08,04,42,4.40
2010,05,08,04,43,4.40
2010,05,08,04,44,4.40
2010,05,08,04,45,4.40
2010,05,08,04,46,4.40
2010,05,08,04,47,4.40
2010,05,08,04,48,4.40
2010,05,08,04,49,4.40
2010,05,08,04,50,4.40
2010,05,08,04,51,4.40
2010,05,08,04,52,4.40
2010,05,08,04,53,4.40
2010,05,08,04,54,4.40
2010,05,08,04,55,4.40
2010,05,08,04,56,4.40
2010,05,08,04,57,4.40
2010,05,08,04,58,4.50
2010,05,08,04,59,4.50
2010,05,08,05,00,4.40
2010,05,08,05,01,4.40
2010,05,08,05,02,4.40
2010,05,08,05,03,4.40
2010,05,08,05,04,4.40
2010,05,08,05,05,4.40
2010,05,08,05,06,4.40
2010,05,08,05,07,4.30
2010,05,08,05,08,4.30
2010,05,08,05,09,4.30
2010,05,08,05,10,4.30
2010,05,08,05,11,4.30
2010,05,08,05,12,4.30
2010,05,08,05,13,4.20
2010,05,08,05,14,4.20
2010,05,08,05,15,4.20
2010,05,08,05,16,4.20
2010,05,08,05,17,4.20
2010,05,08,05,18,4.10
2010,05,08,05,19,4.10
2010,05,08,05,20,4.10
2010,05,08,05,21,4.10
2010,05,08,05,22,4.10
2010,05,08,05,23,4.10
2010,05,08,05,24,4.00
2010,05,08,05,25,4.00
2010,05,08,05,26,4.00
2010,05,08,05,27,4.00
2010,05,08,05,28,4.00
2010,05,08,05,29,4.00
2010,05,08,05,30,4.00
2010,05,08,05,31,4.10
2010,05,08,05,32,4.10
2010,05,08,05,33,4.10
2010,05,08,05,34,4.10
2010,05,08,05,35,4.10
2010,05,08,05,36,4.10
2010,05,08,05,37,4.10
2010,05,08,05,38,4.20
2010,05,08,05,39,4.20
2010,05,08,05,40,4.20
2010,05,08,05,41,4.20
2010,05,08,05,42,4.10
2010,05,08,05,43,4.10
2010,05,08,05,44,4.10
2010,05,08,05,45,4.10
2010,05,08,05,46,4.10
2010,05,08,05,47,4.10
2010,05,08,05,48,4.00
2010,05,08,05,49,4.00
2010,05,08,05,50,4.00
2010,05,08,05,51,4.00
2010,05,08,05,52,4.00
2010,05,08,05,53,4.00
2010,05,08,05,54,4.00
2010,05,08,05,55,4.00
2010,05,08,05,56,4.00
2010,05,08,05,57,4.00
2010,05,08,05,58,4.00
2010,05,08,05,59,4.00
2010,05,08,06,00,4.00
2010,05,08,06,01,4.10
2010,05,08,06,02,4.10
2010,05,08,06,03,4.10
2010,05,08,06,04,4.10
2010,05,08,06,05,4.10
2010,05,08,06,06,4.10
2010,05,08,06,07,4.10
2010,05,08,06,08,4.10
2010,05,08,06,09,4.10
2010,05,08,06,10,4.10
2010,05,08,06,11,4.10
2010,05,08,06,12,4.10
2010,05,08,06,13,4.10
2010,05,08,06,14,4.10
2010,05,08,06,15,4.10
2010,05,08,06,16,4.10
2010,05,08,06,17,4.10
2010,05,08,06,18,4.10
2010,05,08,06,19,4.10
2010,05,08,06,20,4.20
2010,05,08,06,21,4.20
2010,05,08,06,22,4.20
2010,05,08,06,23,4.30
2010,05,08,06,24,4.40
2010,05,08,06,25,4.40
2010,05,08,06,26,4.50
2010,05,08,06,27,4.60
2010,05,08,06,28,4.70
2010,05,08,06,29,4.80
2010,05,08,06,30,4.80
2010,05,08,06,31,4.90
2010,05,08,06,32,4.90
2010,05,08,06,33,5.00
2010,05,08,06,34,5.10
2010,05,08,06,35,5.10
2010,05,08,06,36,5.10
2010,05,08,06,37,5.20
2010,05,08,06,38,5.20
2010,05,08,06,39,5.20
2010,05,08,06,40,5.20
2010,05,08,06,41,5.20
2010,05,08,06,42,5.20
2010,05,08,06,43,5.20
2010,05,08,06,44,5.20
2010,05,08,06,45,5.20
2010,05,08,06,46,5.20
2010,05,08,06,47,5.30
2010,05,08,06,48,5.30
2010,05,08,06,49,5.30
2010,05,08,06,50,5.30
2010,05,08,06,51,5.30
2010,05,08,06,52,5.40
2010,05,08,06,53,5.40
2010,05,08,06,54,5.40
2010,05,08,06,55,5.50
2010,05,08,06,56,5.60
2010,05,08,06,57,5.60
2010,05,08,06,58,5.70
2010,05,08,06,59,5.80
2010,05,08,07,00,5.80
2010,05,08,07,01,5.90
2010,05,08,07,02,5.90
2010,05,08,07,03,6.00
2010,05,08,07,04,6.10
2010,05,08,07,05,6.10
2010,05,08,07,06,6.10
2010,05,08,07,07,6.10
2010,05,08,07,08,6.10
2010,05,08,07,09,6.20
2010,05,08,07,10,6.20
2010,05,08,07,11,6.20
2010,05,08,07,12,6.20
2010,05,08,07,13,6.30
2010,05,08,07,14,6.30
2010,05,08,07,15,6.40
2010,05,08,07,16,6.50
2010,05,08,07,17,6.50
2010,05,08,07,18,6.60
2010,05,08,07,19,6.70
2010,05,08,07,20,6.70
2010,05,08,07,21,6.80
2010,05,08,07,22,6.80
2010,05,08,07,23,6.90
2010,05,08,07,24,7.00
2010,05,08,07,25,7.10
2010,05,08,07,26,7.10
2010,05,08,07,27,7.20
2010,05,08,07,28,7.20
2010,05,08,07,29,7.30
2010,05,08,07,30,7.40
2010,05,08,07,31,7.50
2010,05,08,07,32,7.50
2010,05,08,07,33,7.60
2010,05,08,07,34,7.70
2010,05,08,07,35,7.80
2010,05,08,07,36,7.80
2010,05,08,07,37,7.90
2010,05,08,07,38,8.00
2010,05,08,07,39,8.10
2010,05,08,07,40,8.20
2010,05,08,07,41,8.20
2010,05,08,07,42,8.30
2010,05,08,07,43,8.40
2010,05,08,07,44,8.50
2010,05,08,07,45,8.60
2010,05,08,07,46,8.70
2010,05,08,07,47,8.80
2010,05,08,07,48,8.90
2010,05,08,07,49,9.00
2010,05,08,07,50,9.10
2010,05,08,07,51,9.20
2010,05,08,07,52,9.20
2010,05,08,07,53,9.30
2010,05,08,07,54,9.40
2010,05,08,07,55,9.50
2010,05,08,07,56,9.50
2010,05,08,07,57,9.60
2010,05,08,07,58,9.70
2010,05,08,07,59,9.80
2010,05,08,08,00,9.90
2010,05,08,08,01,10.00
2010,05,08,08,02,10.10
2010,05,08,08,03,10.20
2010,05,08,08,04,10.30
2010,05,08,08,05,10.30
2010,05,08,08,06,10.40
2010,05,08,08,07,10.50
2010,05,08,08,08,10.60
2010,05,08,08,09,10.70
2010,05,08,08,10,10.80
2010,05,08,08,11,10.80
2010,05,08,08,12,10.90
2010,05,08,08,13,11.00
2010,05,08,08,14,11.00
2010,05,08,08,15,11.00
2010,05,08,08,16,11.10
2010,05,08,08,17,11.10
2010,05,08,08,18,11.10
2010,05,08,08,19,11.20
2010,05,08,08,20,11.20
2010,05,08,08,21,11.30
2010,05,08,08,22,11.40
2010,05,08,08,23,11.50
2010,05,08,08,24,11.60
2010,05,08,08,25,11.70
2010,05,08,08,26,11.70
2010,05,08,08,27,11.80
2010,05,08,08,28,11.80
2010,05,08,08,29,11.80
2010,05,08,08,30,11.80
2010,05,08,08,31,11.80
2010,05,08,08,32,11.90
2010,05,08,08,33,11.90
2010,05,08,08,34,11.90
2010,05,08,08,35,12.00
2010,05,08,08,36,12.10
2010,05,08,08,37,12.20
2010,05,08,08,38,12.20
2010,05,08,08,39,12.30
2010,05,08,08,40,12.40
2010,05,08,08,41,12.40
2010,05,08,08,42,12.40
2010,05,08,08,43,12.50
2010,05,08,08,44,12.50
2010,05,08,08,45,12.60
2010,05,08,08,46,12.60
2010,05,08,08,47,12.60
2010,05,08,08,48,12.60
2010,05,08,08,49,12.60
2010,05,08,08,50,12.60
2010,05,08,08,51,12.60
2010,05,08,08,52,12.70
2010,05,08,08,53,12.70
2010,05,08,08,54,12.70
2010,05,08,08,55,12.80
2010,05,08,08,56,12.80
2010,05,08,08,57,12.80
2010,05,08,08,58,12.80
2010,05,08,08,59,12.80
2010,05,08,09,00,12.80
2010,05,08,09,01,12.80
2010,05,08,09,02,12.80
2010,05,08,09,03,12.80
2010,05,08,09,04,12.80
2010,05,08,09,05,12.80
2010,05,08,09,06,12.80
2010,05,08,09,07,12.80
2010,05,08,09,08,12.70
2010,05,08,09,09,12.70
2010,05,08,09,10,12.70
2010,05,08,09,11,12.80
2010,05,08,09,12,12.80
2010,05,08,09,13,12.80
2010,05,08,09,14,12.90
2010,05,08,09,15,12.90
2010,05,08,09,16,12.90
2010,05,08,09,17,12.80
2010,05,08,09,18,12.80
2010,05,08,09,19,12.80
2010,05,08,09,20,12.80
2010,05,08,09,21,12.90
2010,05,08,09,22,12.90
2010,05,08,09,23,12.90
2010,05,08,09,24,12.90
2010,05,08,09,25,13.00
2010,05,08,09,26,13.00
2010,05,08,09,27,13.00
2010,05,08,09,28,13.10
2010,05,08,09,29,13.10
2010,05,08,09,30,13.10
2010,05,08,09,31,13.20
2010,05,08,09,32,13.20
2010,05,08,09,33,13.30
2010,05,08,09,34,13.30
2010,05,08,09,35,13.30
2010,05,08,09,36,13.40
2010,05,08,09,37,13.40
2010,05,08,09,38,13.40
2010,05,08,09,39,13.40
2010,05,08,09,40,13.50
2010,05,08,09,41,13.60
2010,05,08,09,42,13.60
2010,05,08,09,43,13.70
2010,05,08,09,44,13.80
2010,05,08,09,45,13.80
2010,05,08,09,46,13.70
2010,05,08,09,47,13.70
2010,05,08,09,48,13.70
2010,05,08,09,49,13.70
2010,05,08,09,50,13.70
2010,05,08,09,51,13.70
2010,05,08,09,52,13.60
2010,05,08,09,53,13.60
2010,05,08,09,54,13.60
2010,05,08,09,55,13.60
2010,05,08,09,56,13.60
2010,05,08,09,57,13.60
2010,05,08,09,58,13.60
2010,05,08,09,59,13.50
2010,05,08,10,00,13.50
2010,05,08,10,01,13.40
2010,05,08,10,02,13.40
2010,05,08,10,03,13.40
2010,05,08,10,04,13.40
2010,05,08,10,05,13.40
2010,05,08,10,06,13.40
2010,05,08,10,07,13.40
2010,05,08,10,08,13.50
2010,05,08,10,09,13.50
2010,05,08,10,10,13.60
2010,05,08,10,11,13.60
2010,05,08,10,12,13.50
2010,05,08,10,13,13.40
2010,05,08,10,14,13.40
2010,05,08,10,15,13.40
2010,05,08,10,16,13.40
2010,05,08,10,17,13.40
2010,05,08,10,18,13.50
2010,05,08,10,19,13.60
2010,05,08,10,20,13.60
2010,05,08,10,21,13.70
2010,05,08,10,22,13.80
2010,05,08,10,23,13.90
2010,05,08,10,24,14.00
2010,05,08,10,25,14.10
2010,05,08,10,26,14.20
2010,05,08,10,27,14.20
2010,05,08,10,28,14.20
2010,05,08,10,29,14.20
2010,05,08,10,30,14.10
2010,05,08,10,31,14.20
2010,05,08,10,32,14.20
2010,05,08,10,33,14.20
2010,05,08,10,34,14.20
2010,05,08,10,35,14.20
2010,05,08,10,36,14.30
2010,05,08,10,37,14.30
2010,05,08,10,38,14.40
2010,05,08,10,39,14.40
2010,05,08,10,40,14.40
2010,05,08,10,41,14.40
2010,05,08,10,42,14.50
2010,05,08,10,43,14.60
2010,05,08,10,44,14.60
2010,05,08,10,45,14.50
2010,05,08,10,46,14.50
2010,05,08,10,47,14.40
2010,05,08,10,48,14.20
2010,05,08,10,49,14.20
2010,05,08,10,50,14.10
2010,05,08,10,51,14.00
2010,05,08,10,52,13.90
2010,05,08,10,53,13.90
2010,05,08,10,54,13.90
2010,05,08,10,55,13.90
2010,05,08,10,56,14.10
2010,05,08,10,57,14.10
2010,05,08,10,58,14.20
2010,05,08,10,59,14.30
2010,05,08,11,00,14.30
2010,05,08,11,01,14.40
2010,05,08,11,02,14.60
2010,05,08,11,03,14.70
2010,05,08,11,04,14.70
2010,05,08,11,05,14.70
2010,05,08,11,06,14.70
2010,05,08,11,07,14.80
2010,05,08,11,08,14.80
2010,05,08,11,09,14.80
2010,05,08,11,10,14.80
2010,05,08,11,11,14.80
2010,05,08,11,12,14.80
2010,05,08,11,13,14.70
2010,05,08,11,14,14.70
2010,05,08,11,15,14.60
2010,05,08,11,16,14.60
2010,05,08,11,17,14.50
2010,05,08,11,18,14.40
2010,05,08,11,19,14.30
2010,05,08,11,20,14.20
2010,05,08,11,21,14.20
2010,05,08,11,22,14.30
2010,05,08,11,23,14.20
2010,05,08,11,24,14.10
2010,05,08,11,25,14.00
2010,05,08,11,26,14.00
2010,05,08,11,27,13.90
2010,05,08,11,28,13.90
2010,05,08,11,29,13.90
2010,05,08,11,30,13.90
2010,05,08,11,31,13.90
2010,05,08,11,32,14.00
2010,05,08,11,33,14.10
2010,05,08,11,34,14.10
2010,05,08,11,35,14.20
2010,05,08,11,36,14.20
2010,05,08,11,37,14.20
2010,05,08,11,38,14.10
2010,05,08,11,39,14.10
2010,05,08,11,40,14.00
2010,05,08,11,41,13.90
2010,05,08,11,42,13.80
2010,05,08,11,43,13.80
2010,05,08,11,44,13.80
2010,05,08,11,45,13.90
2010,05,08,11,46,14.00
2010,05,08,11,47,14.00
2010,05,08,11,48,14.10
2010,05,08,11,49,14.10
2010,05,08,11,50,14.10
2010,05,08,11,51,14.10
2010,05,08,11,52,14.10
2010,05,08,11,53,14.00
2010,05,08,11,54,14.00
2010,05,08,11,55,13.90
2010,05,08,11,56,13.90
2010,05,08,11,57,13.90
2010,05,08,11,58,13.90
2010,05,08,11,59,14.00
2010,05,08,12,00,14.00
2010,05,08,12,01,14.10
2010,05,08,12,02,14.20
2010,05,08,12,03,14.20
2010,05,08,12,04,14.20
2010,05,08,12,05,14.20
2010,05,08,12,06,14.20
2010,05,08,12,07,14.30
2010,05,08,12,08,14.40
2010,05,08,12,09,14.30
2010,05,08,12,10,14.30
2010,05,08,12,11,14.30
2010,05,08,12,12,14.30
2010,05,08,12,13,14.30
2010,05,08,12,14,14.30
2010,05,08,12,15,14.30
2010,05,08,12,16,14.30
2010,05,08,12,17,14.30
2010,05,08,12,18,14.30
2010,05,08,12,19,14.40
2010,05,08,12,20,14.40
2010,05,08,12,21,14.40
2010,05,08,12,22,14.30
2010,05,08,12,23,14.20
2010,05,08,12,24,14.20
2010,05,08,12,25,14.20
2010,05,08,12,26,14.20
2010,05,08,12,27,14.20
2010,05,08,12,28,14.20
2010,05,08,12,29,14.20
2010,05,08,12,30,14.20
2010,05,08,12,31,14.20
2010,05,08,12,32,14.30
2010,05,08,12,33,14.30
2010,05,08,12,34,14.30
2010,05,08,12,35,14.30
2010,05,08,12,36,14.20
2010,05,08,12,37,14.10
2010,05,08,12,38,14.10
2010,05,08,12,39,14.00
2010,05,08,12,40,14.00
2010,05,08,12,41,14.10
2010,05,08,12,42,14.20
2010,05,08,12,43,14.20
2010,05,08,12,44,14.30
2010,05,08,12,45,14.30
2010,05,08,12,46,14.30
2010,05,08,12,47,14.30
2010,05,08,12,48,14.30
2010,05,08,12,49,14.30
2010,05,08,12,50,14.40
2010,05,08,12,51,14.40
2010,05,08,12,52,14.40
2010,05,08,12,53,14.50
2010,05,08,12,54,14.40
2010,05,08,12,55,14.40
2010,05,08,12,56,14.40
2010,05,08,12,57,14.40
2010,05,08,12,58,14.50
2010,05,08,12,59,14.60
2010,05,08,13,00,14.80
2010,05,08,13,01,14.80
2010,05,08,13,02,14.90
2010,05,08,13,03,14.90
2010,05,08,13,04,14.90
2010,05,08,13,05,15.00
2010,05,08,13,06,15.10
2010,05,08,13,07,15.20
2010,05,08,13,08,15.20
2010,05,08,13,09,15.30
2010,05,08,13,10,15.30
2010,05,08,13,11,15.30
2010,05,08,13,12,15.40
2010,05,08,13,13,15.50
2010,05,08,13,14,15.60
2010,05,08,13,15,15.60
2010,05,08,13,16,15.60
2010,05,08,13,17,15.60
2010,05,08,13,18,15.60
2010,05,08,13,19,15.60
2010,05,08,13,20,15.50
2010,05,08,13,21,15.50
2010,05,08,13,22,15.40
2010,05,08,13,23,15.40
2010,05,08,13,24,15.50
2010,05,08,13,25,15.60
2010,05,08,13,26,15.60
2010,05,08,13,27,15.70
2010,05,08,13,28,15.70
2010,05,08,13,29,15.70
2010,05,08,13,30,15.70
2010,05,08,13,31,15.70
2010,05,08,13,32,15.80
2010,05,08,13,33,15.90
2010,05,08,13,34,16.00
2010,05,08,13,35,16.10
2010,05,08,13,36,16.10
2010,05,08,13,37,16.10
2010,05,08,13,38,16.10
2010,05,08,13,39,16.20
2010,05,08,13,40,16.30
2010,05,08,13,41,16.30
2010,05,08,13,42,16.30
2010,05,08,13,43,16.30
2010,05,08,13,44,16.30
2010,05,08,13,45,16.30
2010,05,08,13,46,16.30
2010,05,08,13,47,16.40
2010,05,08,13,48,16.50
2010,05,08,13,49,16.60
2010,05,08,13,50,16.70
2010,05,08,13,51,16.70
2010,05,08,13,52,16.60
2010,05,08,13,53,16.50
2010,05,08,13,54,16.40
2010,05,08,13,55,16.40
2010,05,08,13,56,16.40
2010,05,08,13,57,16.30
2010,05,08,13,58,16.30
2010,05,08,13,59,16.40
2010,05,08,14,00,16.50
2010,05,08,14,01,16.60
2010,05,08,14,02,16.60
2010,05,08,14,03,16.50
2010,05,08,14,04,16.30
2010,05,08,14,05,16.20
2010,05,08,14,06,16.10
2010,05,08,14,07,15.90
2010,05,08,14,08,15.70
2010,05,08,14,09,15.50
2010,05,08,14,10,15.40
2010,05,08,14,11,15.30
2010,05,08,14,12,15.20
2010,05,08,14,13,15.20
2010,05,08,14,14,15.20
2010,05,08,14,15,15.20
2010,05,08,14,16,15.20
2010,05,08,14,17,15.20
2010,05,08,14,18,15.10
2010,05,08,14,19,15.00
2010,05,08,14,20,14.90
2010,05,08,14,21,14.70
2010,05,08,14,22,14.60
2010,05,08,14,23,14.50
2010,05,08,14,24,14.40
2010,05,08,14,25,14.40
2010,05,08,14,26,14.40
2010,05,08,14,27,14.50
2010,05,08,14,28,14.50
2010,05,08,14,29,14.60
2010,05,08,14,30,14.60
2010,05,08,14,31,14.70
2010,05,08,14,32,14.70
2010,05,08,14,33,14.80
2010,05,08,14,34,15.00
2010,05,08,14,35,15.10
2010,05,08,14,36,15.20
2010,05,08,14,37,15.20
2010,05,08,14,38,15.30
2010,05,08,14,39,15.30
2010,05,08,14,40,15.20
2010,05,08,14,41,15.10
2010,05,08,14,42,15.00
2010,05,08,14,43,14.90
2010,05,08,14,44,14.90
2010,05,08,14,45,14.90
2010,05,08,14,46,14.90
2010,05,08,14,47,14.90
2010,05,08,14,48,14.90
2010,05,08,14,49,15.00
2010,05,08,14,50,15.00
2010,05,08,14,51,15.10
2010,05,08,14,52,15.10
2010,05,08,14,53,15.20
2010,05,08,14,54,15.20
2010,05,08,14,55,15.30
2010,05,08,14,56,15.40
2010,05,08,14,57,15.40
2010,05,08,14,58,15.50
2010,05,08,14,59,15.60
2010,05,08,15,00,15.60
2010,05,08,15,01,15.70
2010,05,08,15,02,15.80
2010,05,08,15,03,15.80
2010,05,08,15,04,15.90
2010,05,08,15,05,15.90
2010,05,08,15,06,15.90
2010,05,08,15,07,16.00
2010,05,08,15,08,16.00
2010,05,08,15,09,16.10
2010,05,08,15,10,16.10
2010,05,08,15,11,16.20
2010,05,08,15,12,16.30
2010,05,08,15,13,16.40
2010,05,08,15,14,16.50
2010,05,08,15,15,16.60
2010,05,08,15,16,16.70
2010,05,08,15,17,16.80
2010,05,08,15,18,16.90
2010,05,08,15,19,16.90
2010,05,08,15,20,17.00
2010,05,08,15,21,17.10
2010,05,08,15,22,17.10
2010,05,08,15,23,17.10
2010,05,08,15,24,17.20
2010,05,08,15,25,17.20
2010,05,08,15,26,17.20
2010,05,08,15,27,17.20
2010,05,08,15,28,17.20
2010,05,08,15,29,17.20
2010,05,08,15,30,17.20
2010,05,08,15,31,17.10
2010,05,08,15,32,17.00
2010,05,08,15,33,17.00
2010,05,08,15,34,16.90
2010,05,08,15,35,16.80
2010,05,08,15,36,16.80
2010,05,08,15,37,16.70
2010,05,08,15,38,16.70
2010,05,08,15,39,16.60
2010,05,08,15,40,16.60
2010,05,08,15,41,16.50
2010,05,08,15,42,16.40
2010,05,08,15,43,16.40
2010,05,08,15,44,16.40
2010,05,08,15,45,16.50
2010,05,08,15,46,16.60
2010,05,08,15,47,16.60
2010,05,08,15,48,16.70
2010,05,08,15,49,16.70
2010,05,08,15,50,16.70
2010,05,08,15,51,16.70
2010,05,08,15,52,16.70
2010,05,08,15,53,16.70
2010,05,08,15,54,16.70
2010,05,08,15,55,16.80
2010,05,08,15,56,16.90
2010,05,08,15,57,17.10
2010,05,08,15,58,17.20
2010,05,08,15,59,17.30
2010,05,08,16,00,17.50
2010,05,08,16,01,17.60
2010,05,08,16,02,17.70
2010,05,08,16,03,17.80
2010,05,08,16,04,17.90
2010,05,08,16,05,17.80
2010,05,08,16,06,17.60
2010,05,08,16,07,17.30
2010,05,08,16,08,17.10
2010,05,08,16,09,17.10
2010,05,08,16,10,17.10
2010,05,08,16,11,17.10
2010,05,08,16,12,17.00
2010,05,08,16,13,17.00
2010,05,08,16,14,16.90
2010,05,08,16,15,16.80
2010,05,08,16,16,16.70
2010,05,08,16,17,16.60
2010,05,08,16,18,16.60
2010,05,08,16,19,16.70
2010,05,08,16,20,16.80
2010,05,08,16,21,16.80
2010,05,08,16,22,16.80
2010,05,08,16,23,16.80
2010,05,08,16,24,16.70
2010,05,08,16,25,16.60
2010,05,08,16,26,16.50
2010,05,08,16,27,16.30
2010,05,08,16,28,16.20
2010,05,08,16,29,16.10
2010,05,08,16,30,16.00
2010,05,08,16,31,15.80
2010,05,08,16,32,15.60
2010,05,08,16,33,15.50
2010,05,08,16,34,15.30
2010,05,08,16,35,15.20
2010,05,08,16,36,15.10
2010,05,08,16,37,14.90
2010,05,08,16,38,14.80
2010,05,08,16,39,14.60
2010,05,08,16,40,14.40
2010,05,08,16,41,14.10
2010,05,08,16,42,14.00
2010,05,08,16,43,14.00
2010,05,08,16,44,13.90
2010,05,08,16,45,13.90
2010,05,08,16,46,13.90
2010,05,08,16,47,13.90
2010,05,08,16,48,13.90
2010,05,08,16,49,13.90
2010,05,08,16,50,13.90
2010,05,08,16,51,14.00
2010,05,08,16,52,14.00
2010,05,08,16,53,14.00
2010,05,08,16,54,14.00
2010,05,08,16,55,14.00
2010,05,08,16,56,14.10
2010,05,08,16,57,14.10
2010,05,08,16,58,14.20
2010,05,08,16,59,14.30
2010,05,08,17,00,14.30
2010,05,08,17,01,14.40
2010,05,08,17,02,14.50
2010,05,08,17,03,14.70
2010,05,08,17,04,14.70
2010,05,08,17,05,14.80
2010,05,08,17,06,14.80
2010,05,08,17,07,14.90
2010,05,08,17,08,15.00
2010,05,08,17,09,15.10
2010,05,08,17,10,15.10
2010,05,08,17,11,15.10
2010,05,08,17,12,15.10
2010,05,08,17,13,15.10
2010,05,08,17,14,15.10
2010,05,08,17,15,15.10
2010,05,08,17,16,15.10
2010,05,08,17,17,15.10
2010,05,08,17,18,15.10
2010,05,08,17,19,15.10
2010,05,08,17,20,15.10
2010,05,08,17,21,15.10
2010,05,08,17,22,15.00
2010,05,08,17,23,15.00
2010,05,08,17,24,15.00
2010,05,08,17,25,15.00
2010,05,08,17,26,15.10
2010,05,08,17,27,15.10
2010,05,08,17,28,15.10
2010,05,08,17,29,15.20
2010,05,08,17,30,15.20
2010,05,08,17,31,15.30
2010,05,08,17,32,15.40
2010,05,08,17,33,15.50
2010,05,08,17,34,15.60
2010,05,08,17,35,15.70
2010,05,08,17,36,15.80
2010,05,08,17,37,15.80
2010,05,08,17,38,15.90
2010,05,08,17,39,16.00
2010,05,08,17,40,16.10